Tracking 19795 objects as of 19-Jul-2019
HD Live streaming from Space Station
objects crossing your sky now

COSMOS 1275 DEB

Track COSMOS 1275 DEB now!
10-day predictions


NORAD ID: 13815
Int'l Code: 1981-053HN
Perigee: 905.5 km
Apogee: 1,074.4 km
Inclination: 83.0 °
Period: 104.8 minutes
Semi major axis: 7360 km
RCS: 0.0181 m2 (small)
Launch date: June 4, 1981
Source: Commonwealth of Independent States (former USSR) (CIS)
Launch site: PLESETSK MISSILE AND SPACE COMPLEX (PKMTR)

Note: This is SATELLITE DEBRIS
aabbcc
Your satellite tracking list
Your tracking list is empty




NASA's NSSDC Master Catalog

Two Line Element Set (TLE):
1 13815U 81053HK  19198.27884054  .00000282  00000-0  26900-3 0  9993
2 13815  83.0304 290.7122 0114743 324.4294  87.5097 13.74684845821949
Source of the keplerian elements: AFSPC